Location: Pedholt
(56.0260°N, 10.2097°E)
Time: 06:01:52
(UTC+00:00)

Okean 1-7 - Pass Details

Date: 14 July 2020
Orbit: 591 x 618 km, 82.5° (Epoch: 14 August)

Event Time Altitude Azimuth Distance (km) Brightness Sun altitude
Rises 01:09:26 0° 343° (NNW) 2,909 7.3 -9.3°
Reaches altitude 10° 01:11:46 10° 336° (NNW) 1,999 6.3 -9.1°
Maximum altitude 01:15:53 39° 268° (W) 930 3.8 -8.9°
Enters shadow 01:19:47 11° 200° (SSW) 1,906 4.9 -8.6°
